Wind_Speed
54 55 50 47 45 43 43 44 44 44 45 44 41 38 37 36 34 34 31 25 22 23 24 18 13 12 14 18 21 25 29 33 35 36 37 38 38 39 38 36 34 32 31
59 56 56 52 51 51 48 46 46 48 49 48 44 43 44 39 38 37 40 39 34 28 22 24 21 16 14 15 17 20 21 22 23 24 25 25 24 24 23 23 21 19 18
62 61 59 56 51 53 52 51 49 51 53 52 48 46 45 43 40 32 42 38 38 25 26 26 25 25 21 18 17 18 18 19 20 20 20 19 18 18 19 17 16 16 16
68 66 65 63 61 55 55 56 54 54 56 58 58 53 48 46 38 41 36 39 41 38 36 30 27 26 24 23 20 19 18 16 16 14 14 13 13 12 13 11 11 11 11
73 72 70 69 65 62 58 57 57 57 59 59 60 56 53 51 50 47 39 43 39 35 37 39 31 28 25 24 23 21 20 17 15 16 14 13 12 12 12 12 12 12 12
81 77 75 74 74 69 66 62 61 61 59 63 60 59 56 50 53 49 47 41 39 40 35 41 31 30 31 26 24 21 20 19 16 17 16 16 16 16 14 14 14 12 12
86 82 79 77 75 74 73 69 67 65 62 64 62 62 58 56 56 53 52 49 48 39 43 45 40 34 28 32 30 25 23 24 21 20 20 21 20 21 20 20 20 19 17
91 88 82 84 80 78 77 73 72 67 67 67 65 64 63 60 55 53 49 51 47 45 43 45 43 39 35 31 33 33 30 28 26 24 23 24 25 24 24 24 24 23 21
94 93 93 86 85 81 81 79 78 77 70 68 69 69 68 65 62 59 57 51 50 47 48 49 46 47 47 39 32 34 32 32 33 32 29 28 27 31 28 27 25 24 23
84 88 89 87 86 84 82 80 80 77 78 75 74 73 75 72 64 61 56 55 54 53 52 54 54 51 50 54 48 44 38 40 34 38 34 41 37 34 35 32 32 28 30
76 82 84 88 91 90 87 86 84 82 79 80 80 78 78 77 74 71 66 63 60 55 55 59 61 57 52 56 55 51 53 49 47 45 46 38 42 43 43 37 32 33 37
70 71 79 86 86 88 90 90 89 89 87 88 85 81 87 83 82 79 79 75 70 67 63 62 67 66 61 60 58 58 61 53 51 53 45 48 39 45 42 41 43 46 46
48 49 60 70 81 87 90 90 92 93 93 93 92 90 90 87 89 83 84 87 84 84 81 79 73 70 70 67 65 59 58 59 54 57 53 51 50 46 52 50 47 50 52
48 50 51 54 63 77 86 93 94 95 95 95 94 95 95 93 93 90 81 82 86 85 85 86 80 76 73 74 69 65 62 57 61 61 60 60 57 54 51 54 58 52 58
52 54 57 56 58 65 71 80 93 96 96 97 97 97 89 95 94 95 97 87 85 89 88 91 92 90 83 83 75 75 71 65 66 64 63 63 59 61 58 56 58 60 61
49 54 59 62 67 72 75 79 82 89 100 101 99 99 98 93 96 95 99 100 99 100 102 97 97 95 88 83 84 80 75 74 70 68 70 64 67 64 62 62 64 64 63
45 51 59 72 76 79 83 85 86 88 91 97 104 104 103 103 101 99 97 102 97 98 103 103 103 100 93 87 89 87 83 78 78 77 72 70 72 71 68 64 68 69 72
52 62 73 80 82 87 87 86 87 89 95 98 101 108 109 108 109 109 107 103 107 103 103 100 102 101 97 97 94 90 91 90 88 84 81 81 74 76 73 72 75 72 72
62 75 82 79 77 80 82 85 88 90 91 93 97 104 106 116 114 113 112 110 111 108 106 104 101 101 99 100 94 96 99 95 91 89 87 84 83 78 79 78 76 80 78
73 77 73 72 75 79 78 78 84 88 90 94 96 96 100 108 113 120 116 116 112 107 110 112 99 97 99 103 102 107 106 102 99 96 92 88 87 84 81 82 82 81 83
76 69 63 60 64 66 69 75 80 83 85 87 91 95 100 100 103 114 117 122 122 117 111 116 100 101 97 97 100 104 108 105 103 97 96 88 94 87 82 81 80 82 81
72 58 54 57 57 58 60 65 68 77 84 90 94 99 103 104 105 105 108 117 127 126 126 120 116 114 113 104 104 104 103 100 98 102 95 92 95 92 87 83 84 87 86
65 57 54 53 52 51 54 57 62 71 76 82 89 98 106 111 113 113 112 110 115 126 130 134 131 131 122 110 101 105 104 95 96 99 99 96 99 94 90 93 89 91 91
65 56 53 53 51 50 50 53 57 63 66 72 78 88 93 97 105 115 121 121 119 117 125 129 133 140 138 129 116 108 108 111 104 95 92 93 95 96 95 93 92 91 91
62 57 54 51 51 53 52 54 54 56 60 66 72 76 81 88 95 104 111 119 125 122 120 123 131 130 136 140 134 132 116 110 113 113 108 103 99 95 93 95 93 90 89
58 56 54 51 50 51 53 53 53 54 58 61 66 71 76 82 88 94 102 110 115 117 124 123 125 129 132 132 137 143 132 114 98 112 115 108 104 103 100 94 92 90 90
Wind_Direction
248 252 253 256 255 256 256 263 267 273 274 274 281 286 289 296 300 298 300 308 308 296 296 280 272 274 265 256 253 250 249 248 251 254 255 259 263 266 267 268 268 269 271
249 251 253 255 258 257 257 260 264 271 274 276 275 284 291 289 289 291 301 309 302 300 290 287 272 271 268 271 268 262 255 251 249 247 248 251 252 254 258 259 263 265 266
254 254 255 253 257 259 256 257 261 265 272 275 276 277 283 285 283 281 298 300 301 289 294 282 281 275 265 266 273 274 270 262 256 256 255 251 251 250 250 257 259 260 261
256 257 255 255 256 258 259 260 259 260 266 271 274 276 277 277 273 284 279 287 296 297 288 284 269 270 265 262 264 265 271 272 272 262 253 247 241 242 245 248 251 258 265
255 255 256 256 256 257 257 258 261 263 262 265 270 271 270 272 275 276 271 282 284 282 281 291 273 252 260 260 259 261 264 267 269 264 258 249 244 244 250 250 253 257 261
252 254 256 258 258 259 257 256 258 261 258 257 266 268 269 264 270 267 272 269 270 277 275 281 271 264 253 252 255 256 256 259 257 263 261 256 252 252 251 254 255 257 263
252 253 255 257 258 258 258 258 259 260 256 253 260 262 262 261 264 265 268 266 270 255 272 273 272 268 253 262 249 249 250 257 253 255 260 262 262 263 263 261 260 260 262
251 252 254 254 255 257 258 258 259 260 260 258 258 258 259 256 260 259 254 260 262 264 261 255 264 276 256 258 255 252 248 248 253 250 257 264 267 268 270 271 270 271 269
249 251 252 253 254 254 255 257 259 258 254 253 251 256 256 256 261 255 254 251 262 256 256 251 249 265 263 267 255 256 253 259 255 254 255 256 264 267 266 270 274 270 272
249 249 248 248 249 249 251 254 254 252 255 254 253 251 251 254 256 255 250 245 254 257 249 242 247 252 262 269 262 262 262 267 256 272 268 264 258 263 265 269 265 270 275
252 249 248 248 246 247 248 249 249 249 249 250 254 254 254 251 256 250 249 251 248 252 244 244 243 247 248 260 266 260 265 268 258 265 269 274 262 266 261 267 275 275 290
252 254 251 249 249 248 247 248 247 246 247 247 249 249 246 252 254 254 252 250 250 247 243 248 246 245 245 248 261 259 263 262 260 265 269 274 267 273 261 267 272 276 283
254 253 253 252 250 250 249 248 246 245 246 246 247 249 248 251 254 254 252 253 251 252 250 251 248 247 244 245 256 259 256 262 256 261 266 268 261 263 269 267 272 271 275
262 260 259 257 257 252 251 249 247 245 244 244 246 247 247 247 248 248 251 249 247 246 248 250 250 251 249 244 252 250 249 257 257 256 261 267 273 264 268 265 264 270 268
269 267 263 257 258 255 252 251 247 247 245 244 243 245 243 245 245 247 250 248 245 247 248 249 250 252 253 246 247 249 250 256 247 252 251 260 265 267 271 269 264 267 265
270 268 268 266 264 259 254 250 248 247 244 245 243 242 241 240 242 238 246 247 248 249 252 250 249 255 255 246 247 246 246 253 251 246 256 250 263 262 266 267 262 271 268
272 274 275 277 270 263 256 254 250 248 247 245 243 242 242 240 239 239 240 241 244 249 252 255 254 255 252 248 248 247 247 249 249 249 251 256 258 261 262 263 257 265 269
285 288 287 282 269 262 259 259 258 256 253 249 246 243 241 240 240 239 240 241 242 244 248 249 250 254 248 250 245 246 245 251 253 247 254 252 256 260 261 256 258 262 268
298 295 293 282 277 270 267 265 262 261 261 260 256 249 247 243 240 240 239 239 244 242 242 245 246 247 249 248 238 238 251 249 251 251 253 251 257 259 261 260 258 261 264
306 306 298 286 279 275 269 267 265 264 263 262 258 255 252 247 246 242 241 237 237 240 239 242 246 250 249 244 239 244 252 251 250 250 255 255 253 258 256 259 258 260 263
312 304 293 286 278 273 269 266 265 264 260 256 255 254 252 251 249 244 242 241 238 235 236 238 240 249 250 252 249 251 252 252 251 245 252 255 250 257 258 254 258 260 265
310 301 288 279 272 270 265 259 256 255 252 251 250 249 250 250 249 248 244 242 240 239 236 234 237 241 245 248 251 250 245 245 244 248 249 253 248 251 254 257 258 261 263
311 302 297 288 280 277 269 267 262 258 257 256 254 252 248 248 250 248 249 246 240 237 238 239 236 236 238 244 247 247 253 249 245 245 243 248 245 249 253 255 261 260 262
313 304 299 294 291 291 287 277 272 269 261 257 257 255 254 254 251 248 248 246 245 242 237 236 237 236 237 237 238 244 247 248 242 242 243 245 246 250 252 254 259 261 263
311 307 304 299 299 298 293 285 279 273 269 265 261 259 259 258 255 252 250 248 247 246 243 239 237 236 236 237 234 237 243 246 251 252 251 249 250 253 256 258 259 261 265
309 307 303 300 302 302 299 290 280 275 273 270 269 267 264 261 259 256 253 250 248 248 246 244 240 238 237 237 236 238 237 244 246 250 252 252 253 254 257 257 259 261 264
Height
10819 10822 10825 10826 10828 10829 10830 10829 10829 10830 10834 10838 10839 10839 10841 10841 10841 10841 10843 10845 10846 10845 10843 10843 10841 10840 10839 10837 10835 10834 10832 10831 10832 10833 10833 10833 10834 10834 10834 10833 10832 10832 10833
10810 10814 10817 10820 10821 10822 10823 10825 10824 10824 10825 10830 10833 10833 10834 10836 10837 10837 10836 10838 10841 10841 10841 10841 10840 10839 10838 10836 10834 10834 10832 10830 10829 10828 10828 10828 10829 10828 10828 10827 10828 10829 10829
10801 10805 10808 10812 10814 10814 10817 10818 10819 10819 10818 10821 10826 10828 10829 10830 10831 10831 10830 10832 10834 10837 10837 10837 10837 10838 10837 10835 10834 10832 10831 10829 10827 10827 10826 10825 10825 10824 10824 10824 10825 10825 10825
10791 10794 10797 10800 10804 10808 10810 10812 10812 10812 10811 10812 10815 10820 10822 10823 10824 10826 10827 10827 10828 10830 10830 10832 10833 10833 10832 10832 10831 10830 10829 10828 10827 10825 10824 10823 10823 10822 10821 10822 10822 10822 10822
10779 10783 10786 10790 10794 10798 10801 10803 10804 10805 10803 10804 10806 10810 10813 10815 10817 10818 10820 10821 10820 10823 10824 10826 10827 10828 10827 10827 10827 10827 10826 10826 10825 10824 10823 10822 10822 10820 10820 10820 10820 10820 10819
10768 10771 10776 10779 10783 10787 10790 10793 10794 10794 10795 10794 10796 10798 10802 10805 10806 10809 10812 10814 10814 10815 10817 10819 10821 10822 10822 10822 10822 10823 10822 10822 10822 10822 10821 10820 10820 10819 10818 10818 10817 10817 10817
10755 10759 10763 10765 10769 10774 10778 10780 10781 10783 10784 10782 10785 10787 10790 10794 10796 10798 10801 10804 10807 10808 10808 10810 10813 10816 10816 10818 10817 10818 10818 10818 10818 10818 10818 10817 10817 10817 10816 10816 10814 10814 10814
10741 10747 10750 10753 10755 10759 10762 10765 10768 10770 10771 10772 10773 10776 10778 10783 10786 10789 10791 10793 10796 10798 10799 10801 10803 10806 10808 10810 10811 10812 10812 10812 10813 10813 10813 10813 10813 10812 10813 10812 10812 10811 10811
10726 10731 10736 10738 10742 10743 10748 10748 10753 10757 10758 10760 10760 10763 10766 10770 10774 10777 10779 10781 10784 10786 10789 10790 10793 10795 10799 10801 10803 10804 10806 10807 10808 10808 10808 10807 10808 10807 10807 10807 10807 10807 10807
10708 10711 10716 10719 10723 10726 10730 10735 10736 10739 10744 10746 10748 10750 10750 10757 10760 10763 10766 10770 10772 10775 10777 10780 10780 10783 10786 10790 10792 10794 10796 10799 10799 10800 10801 10802 10802 10802 10801 10801 10801 10801 10801
10692 10695 10698 10701 10705 10709 10712 10717 10721 10724 10728 10729 10733 10737 10738 10738 10743 10748 10753 10756 10758 10760 10764 10767 10768 10771 10773 10776 10779 10783 10784 10787 10790 10791 10793 10793 10796 10794 10795 10795 10794 10794 10794
10675 10678 10680 10684 10687 10690 10694 10699 10703 10705 10709 10713 10716 10723 10718 10725 10725 10730 10734 10739 10742 10746 10749 10753 10755 10757 10761 10762 10765 10769 10772 10776 10778 10779 10782 10784 10786 10787 10787 10787 10786 10786 10785
10660 10661 10663 10665 10667 10669 10672 10677 10683 10686 10689 10692 10694 10700 10705 10710 10711 10705 10714 10717 10722 10726 10731 10736 10740 10744 10747 10749 10752 10755 10759 10763 10766 10769 10770 10772 10774 10776 10777 10778 10777 10776 10776
10647 10647 10646 10647 10647 10649 10649 10653 10657 10661 10667 10672 10675 10678 10685 10688 10687 10684 10691 10695 10699 10703 10710 10716 10722 10728 10731 10735 10737 10741 10745 10749 10753 10755 10758 10759 10761 10763 10765 10766 10766 10765 10765
10635 10633 10631 10628 10627 10627 10625 10626 10631 10636 10643 10649 10653 10660 10664 10668 10668 10669 10670 10669 10677 10680 10689 10695 10701 10707 10713 10718 10721 10725 10729 10733 10737 10740 10744 10746 10747 10751 10753 10754 10753 10752 10752
10622 10620 10617 10614 10609 10605 10602 10603 10604 10609 10616 10623 10629 10635 10644 10647 10649 10653 10652 10654 10654 10654 10660 10671 10677 10683 10692 10699 10704 10709 10712 10717 10721 10724 10728 10730 10734 10737 10740 10740 10740 10739 10739
10606 10604 10600 10591 10584 10580 10578 10581 10583 10585 10589 10595 10602 10609 10616 10624 10628 10629 10633 10638 10635 10635 10634 10643 10654 10662 10672 10678 10686 10690 10695 10699 10703 10708 10712 10716 10719 10724 10725 10727 10726 10727 10726
10590 10584 10576 10566 10558 10556 10559 10563 10564 10565 10569 10570 10575 10582 10587 10593 10601 10608 10613 10614 10617 10620 10618 10622 10628 10637 10647 10655 10662 10668 10674 10680 10685 10691 10696 10702 10705 10707 10711 10712 10713 10711 10713
10569 10560 10546 10539 10539 10540 10542 10544 10545 10547 10548 10550 10553 10557 10560 10567 10571 10579 10588 10592 10593 10601 10601 10602 10605 10614 10620 10631 10640 10643 10652 10659 10666 10672 10679 10686 10690 10693 10695 10697 10697 10697 10696
10550 10535 10522 10519 10521 10522 10522 10522 10522 10522 10522 10522 10523 10525 10530 10537 10543 10551 10560 10568 10570 10577 10583 10584 10586 10588 10596 10610 10614 10619 10629 10637 10645 10653 10660 10667 10672 10676 10680 10681 10682 10680 10681
10527 10516 10507 10502 10499 10498 10497 10498 10497 10494 10493 10491 10491 10493 10499 10504 10511 10519 10526 10536 10542 10553 10558 10563 10570 10571 10575 10578 10582 10592 10604 10615 10621 10632 10640 10648 10656 10660 10662 10665 10667 10667 10666
10507 10497 10490 10486 10481 10476 10475 10472 10470 10466 10463 10463 10462 10465 10468 10471 10476 10482 10492 10504 10510 10520 10529 10535 10545 10550 10553 10555 10561 10566 10577 10590 10603 10615 10624 10628 10635 10641 10647 10648 10651 10654 10652
10488 10479 10471 10464 10461 10457 10454 10451 10449 10448 10444 10442 10441 10441 10441 10443 10447 10451 10456 10465 10473 10483 10497 10505 10515 10519 10532 10532 10540 10542 10548 10568 10583 10590 10601 10608 10616 10623 10628 10631 10634 10637 10638
10472 10464 10456 10447 10442 10438 10435 10432 10428 10425 10422 10419 10417 10416 10416 10415 10417 10419 10424 10429 10438 10446 10461 10467 10474 10490 10494 10515 10522 10522 10527 10540 10554 10571 10582 10591 10598 10606 10611 10614 10617 10620 10623
10457 10448 10440 10433 10426 10421 10414 10410 10406 10401 10400 10396 10393 10394 10391 10389 10388 10389 10389 10393 10402 10411 10426 10436 10444 10452 10465 10478 10495 10503 10507 10519 10527 10544 10563 10573 10578 10588 10592 10599 10601 10603 10607
10441 10432 10424 10418 10411 10404 10397 10390 10386 10382 10376 10373 10368 10367 10363 10359 10355 10354 10354 10358 10366 10376 10389 10401 10411 10421 10435 10446 10462 10473 10495 10503 10518 10517 10530 10545 10556 10566 10574 10580 10586 10590 10592